This is the latest recevied weather packets stored in our database for station/object VK7TM-1. If no packets are shown the sender has not sent any weather packets the latest 10 day(s).
| Time | Temp. | Humidity | Pressure | Rain* | Wind** | Luminosity | Snow |
|---|---|---|---|---|---|---|---|
| 1778376472 | 16.11° C | 66% | 1032.4 hPa | 0 mm | - | 39 W/m² | - |
| 1778376182 | 16.11° C | 65% | 1032.3 hPa | 0 mm | - | 36 W/m² | - |
| 1778375892 | 16.11° C | 68% | 1032.6 hPa | 0 mm | - | 36 W/m² | - |
| 1778375602 | 16.11° C | 65% | 1032.4 hPa | 0 mm | - | 35 W/m² | - |
| 1778375312 | 16.11° C | 62% | 1032.4 hPa | 0 mm | - | 35 W/m² | - |
| 1778375022 | 16.11° C | 65% | 1032.3 hPa | 0 mm | - | 35 W/m² | - |
| 1778374732 | 16.11° C | 69% | 1032.1 hPa | 0 mm | - | 35 W/m² | - |
| 1778374442 | 15.56° C | 66% | 1032.2 hPa | 0 mm | - | 35 W/m² | - |
| 1778374160 | 15.56° C | 66% | 1032.2 hPa | 0 mm | - | 35 W/m² | - |
| 1778373862 | 15.56° C | 66% | 1032.2 hPa | 0 mm | - | 34 W/m² | - |
| 1778373572 | 15.56° C | 64% | 1032.1 hPa | 0 mm | - | 34 W/m² | - |
| 1778373282 | 15.56° C | 64% | 1032.1 hPa | 0 mm | - | 34 W/m² | - |
| 1778372992 | 15.56° C | 65% | 1032.2 hPa | 0 mm | - | 34 W/m² | - |
| 1778372702 | 15.56° C | 65% | 1032 hPa | 0 mm | - | 34 W/m² | - |
| 1778372412 | 15.56° C | 67% | 1032.2 hPa | 0 mm | - | 33 W/m² | - |
| 1778372122 | 15.56° C | 66% | 1032.2 hPa | 0 mm | - | 33 W/m² | - |
| 1778371832 | 15° C | 67% | 1032.1 hPa | 0 mm | - | 33 W/m² | - |
| 1778371542 | 15° C | 67% | 1032 hPa | 0 mm | - | 33 W/m² | - |
| 1778371252 | 15° C | 64% | 1032 hPa | 0 mm | - | 33 W/m² | - |
| 1778370962 | 15° C | 63% | 1031.9 hPa | 0 mm | - | 33 W/m² | - |
| 1778370671 | 15° C | 67% | 1032.1 hPa | 0 mm | - | 32 W/m² | - |
| 1778370382 | 15° C | 70% | 1031.9 hPa | 0 mm | - | 33 W/m² | - |
| 1778370092 | 15° C | 72% | 1031.8 hPa | 0 mm | - | 32 W/m² | - |
| 1778369802 | 15° C | 68% | 1031.8 hPa | 0 mm | - | 32 W/m² | - |
| 1778369511 | 15° C | 68% | 1031.8 hPa | 0 mm | - | 36 W/m² | - |
* Rain latest hour (hover to see other rain measurements)
** Current wind speed in m/s (hover to see current wind gust speed)